Terminal Aerodrome Forecast
Issued by NWS Sterling, VA

Current Version | Previous Version | Text Only | Print | Product List | Glossary Off
Versions: 1 2 3 4 5 6 7 8 9 10 11 12 13 14 15 16 17 18 19 20 21 22

000
FTUS41 KLWX 262044 AAA
TAFIAD
TAF AMD
KIAD 262044Z 2621/2724 36008KT P6SM SCT050
     FM270100 VRB03KT P6SM SCT050
     FM271100 32007KT P6SM BKN050
     FM271400 32013G20KT P6SM BKN050
     FM272200 32012KT P6SM BKN050=

USA.gov is the U.S. government's official web portal to all federal, state and local government web resources and services.